[[{"header":{"parameterUnit":"m.s-1","parameterCategory":1,"la1":30.2991,"la2":30.254,"lo1":-89.0895,"lo2":-89.0444,"dy":0.0017,"dx":0.0017,"nx":28,"ny":28,"refTime":"2025-05-27T09:00:00:Z","depth":0,"parameterNumber":2,"parameterNumberName":"U-component_of_WINDS"},"data":[0,0,0,0,0,0,0,0,0,0,0,0,0,0,0,0,0,0,0,0,0,0,0,0,0,0,0,0,0,0,0,0,0,0,0,0,0,0,0,0,0,0,0,0,0,0,0,0,0,0,0,0,0,0,0,0,0,0,1.4747,1.4746,0,1.4654,1.4653,1.4652,1.4566,1.4565,1.4564,1.4563,1.4467,1.4466,1.4464,0,0,0,0,0,0,0,0,0,0,0,0,0,1.4845,1.4844,1.4747,1.4746,1.4744,1.4654,1.4653,1.4652,1.4566,1.4565,1.4563,1.4562,1.4468,1.4466,1.4464,0,0,0,0,0,0,0,0,0,0,0,0,0,1.4783,1.4843,1.4747,1.4691,1.4685,1.4655,1.4653,1.4652,1.4566,1.4565,1.4563,1.4562,1.4468,1.4466,1.4464,1.4481,0,0,1.4456,1.4455,0,0,0,0,0,0,0,0,1.4786,1.4779,1.47,1.4695,1.4688,1.462,1.4653,1.4594,1.4567,1.4611,1.4563,1.4561,1.4519,1.4513,1.4499,1.4477,1.4473,1.4456,1.4455,1.4454,1.4453,0,0,0,0,0,0,0,1.4791,1.4783,1.471,1.4699,1.4692,1.4669,1.4658,1.4641,1.4575,1.4607,1.4601,1.4591,1.4515,1.4501,1.4496,1.4471,1.4456,1.4454,1.4453,1.4452,1.4454,1.4455,0,0,0,0,0,0,1.4804,1.4787,1.4713,1.4707,1.4734,1.4669,1.4657,1.4643,1.4575,1.4563,1.4593,1.4587,1.4506,1.4499,1.4492,1.4504,1.4454,1.4452,1.445,1.4452,1.4454,1.4456,0,0,0,0,0,0,1.4806,1.4798,1.4717,1.4745,1.4733,1.4669,1.4654,1.4642,1.4628,1.4564,1.4552,1.459,1.4504,1.4495,1.4483,1.45,1.4451,1.4449,1.4451,1.4453,1.4455,1.4532,0,0,0,0,0,0,1.481,1.48,1.4807,1.4746,1.4732,1.4711,1.4656,1.4642,1.4624,1.4617,1.4559,1.4547,1.4502,1.4487,1.4481,1.4496,1.4447,1.4449,1.4452,1.4454,1.4528,1.4537,1.4544,0,0,0,0,0,1.4813,1.4833,1.4808,1.4799,1.474,1.4712,1.4704,1.4652,1.4626,1.4631,1.459,1.4549,1.45,1.4487,1.4479,1.4494,1.4447,1.4451,1.4454,1.4524,1.4535,1.4544,0,0,0,0,0,0,1.4898,1.4824,1.4795,1.4796,1.4761,1.4698,1.4703,1.4666,1.4638,1.4632,1.4568,1.4556,1.455,1.4521,1.4508,1.4504,1.4468,1.447,1.4524,1.4533,1.4542,1.4548,1.4445,0,0,0,0,0,1.4916,1.4901,1.4837,1.4844,1.4828,1.4769,1.4755,1.4718,1.4679,1.4664,1.4622,1.4585,1.456,1.4545,1.452,1.4523,1.4507,1.4529,1.4537,1.4545,1.4546,1.4541,1.4549,1.4466,1.4466,1.4466,0,0,1.4955,1.4912,1.4907,1.486,1.4828,1.4812,1.4757,1.4744,1.473,1.4662,1.4647,1.4614,1.4569,1.4564,1.4559,1.4539,1.4565,1.4549,1.4555,1.4552,1.4546,1.4553,1.456,1.4468,1.4468,1.4468,0,0,1.5015,1.4984,1.4983,1.4953,1.4906,1.4866,1.4866,1.4808,1.4783,1.4768,1.4714,1.4697,1.4658,1.4626,1.4605,1.4651,1.4611,1.4644,1.4687,1.4683,1.4689,1.4695,1.4707,1.4713,1.4647,1.4647,1.4647,0,1.5068,1.5043,1.4988,1.4976,1.4956,1.4893,1.4891,1.4863,1.4811,1.4797,1.4775,1.4721,1.4687,1.4671,1.4682,1.4668,1.4663,1.465,1.4693,1.4698,1.4702,1.4713,1.4719,1.4651,1.465,1.465,1.465,0,1.5109,1.5092,1.5098,1.5047,1.5027,1.5021,1.4963,1.4949,1.4913,1.4875,1.4858,1.4813,1.4776,1.477,1.4735,1.4748,1.4736,1.4705,1.4666,1.4715,1.4724,1.4728,1.4657,1.4655,1.4654,1.4653,0,0,1.522,1.5138,1.514,1.5115,1.5057,1.5042,1.5032,1.4995,1.4982,1.4948,1.4935,1.4901,1.4871,1.4847,1.4808,1.4805,1.4839,1.4773,1.477,1.4783,1.4845,1.4867,1.4874,1.4812,1.4813,1.4814,1.4848,0,1.5269,1.5246,1.5195,1.5188,1.517,1.5108,1.5098,1.5061,1.5025,1.5002,1.4962,1.4937,1.4901,1.4885,1.488,1.4836,1.485,1.4833,1.4797,1.4797,1.4808,1.4879,1.4903,1.4937,1.4852,1.4852,1.4853,0,1.5322,1.529,1.5281,1.5221,1.5212,1.5204,1.5164,1.5145,1.5099,1.5073,1.5045,1.5001,1.4983,1.4949,1.4923,1.4912,1.4894,1.487,1.487,1.4863,1.4826,1.487,1.4948,1.4952,1.4859,1.4858,1.4858,0,1.54,1.5355,1.5342,1.5323,1.5254,1.5249,1.522,1.5173,1.5153,1.5118,1.5104,1.5067,1.5047,1.5018,1.4965,1.4946,1.4942,1.4905,1.4917,1.4918,1.4918,1.4918,1.499,1.4911,1.4911,1.4911,1.4911,0,1.5458,1.5454,1.5376,1.5368,1.536,1.5301,1.5295,1.526,1.5218,1.5201,1.5146,1.5131,1.5062,1.5038,1.4996,1.4978,1.497,1.4946,1.4934,1.4949,1.4952,1.4935,1.493,1.4912,1.4912,1.4912,1.4912,0,1.5542,1.5491,1.5472,1.5408,1.5392,1.5389,1.5332,1.5321,1.5281,1.5259,1.5251,1.5187,1.5155,1.5099,1.5052,1.5023,1.5012,1.4994,1.5028,1.502,1.5034,1.5032,1.5096,1.5099,1.5022,1.5023,1.5023,0,1.5582,1.5577,1.5512,1.5496,1.5469,1.5445,1.5424,1.5365,1.5344,1.5291,1.5285,1.5249,1.5217,1.5168,1.5116,1.5079,1.5057,1.5082,1.5051,1.5065,1.5054,1.5053,1.5051,1.5089,1.509,1.5091,1.5092,0,1.5655,1.5629,1.5601,1.5563,1.5539,1.5507,1.5471,1.5461,1.5393,1.5373,1.534,1.5315,1.5265,1.5228,1.5183,1.515,1.5108,1.5102,1.5102,1.5116,1.5134,1.5121,1.5043,1.51,1.5099,1.5099,1.5098,1.5098,1.5715,1.5707,1.5659,1.5629,1.5596,1.5563,1.5548,1.5506,1.5477,1.5433,1.5399,1.5367,1.5319,1.5253,1.5223,1.5195,1.5176,1.5178,1.5177,1.5178,1.5182,1.5141,1.5187,1.5187,1.5186,1.5186,1.5186,0,1.5783,1.5749,1.5722,1.5673,1.5649,1.5613,1.5571,1.5552,1.5525,1.5484,1.5453,1.5412,1.5376,1.5321,1.5279,1.5268,1.5247,1.5258,1.5257,1.525,1.5203,1.5206,1.5276,1.5275,1.5275,1.5275,1.5275,1.5275,1.5816,1.5798,1.5766,1.5731,1.5696,1.5665,1.5643,1.5612,1.5578,1.5536,1.5506,1.547,1.5422,1.5376,1.534,1.5324,1.531,1.5327,1.5305,1.5262,1.5254,1.5246,1.5247,1.5325,1.5325,1.5353,1.5353,1.5354]},{"header":{"parameterUnit":"m.s-1","parameterCategory":1,"la1":30.2991,"la2":30.254,"lo1":-89.0895,"lo2":-89.0444,"dy":0.0017,"dx":0.0017,"nx":28,"ny":28,"refTime":"2025-05-27T09:00:00:Z","depth":0,"parameterNumber":3,"parameterNumberName":"V-component_of_WINDS"},"data":[0,0,0,0,0,0,0,0,0,0,0,0,0,0,0,0,0,0,0,0,0,0,0,0,0,0,0,0,0,0,0,0,0,0,0,0,0,0,0,0,0,0,0,0,0,0,0,0,0,0,0,0,0,0,0,0,0,0,4.4855,4.4856,0,4.4898,4.4898,4.4899,4.4807,4.4804,4.4801,4.4799,4.4837,4.484,4.4844,0,0,0,0,0,0,0,0,0,0,0,0,0,4.469,4.4693,4.4855,4.4856,4.4856,4.4898,4.4898,4.4899,4.4808,4.4804,4.4801,4.4797,4.4835,4.484,4.4844,0,0,0,0,0,0,0,0,0,0,0,0,0,4.475,4.4694,4.4855,4.4816,4.4813,4.4897,4.4898,4.4899,4.4809,4.4804,4.48,4.4796,4.4834,4.4839,4.4845,4.4968,0,0,4.4862,4.4864,0,0,0,0,0,0,0,0,4.4746,4.4756,4.4821,4.4819,4.4816,4.4843,4.4854,4.4922,4.481,4.481,4.4799,4.4793,4.4842,4.4847,4.4864,4.4969,4.4971,4.4863,4.4866,4.4868,4.487,0,0,0,0,0,0,0,4.4742,4.4754,4.4872,4.4822,4.4819,4.4794,4.4798,4.4866,4.485,4.481,4.4803,4.481,4.4839,4.4859,4.4864,4.4971,4.4862,4.4867,4.4871,4.4873,4.5177,4.5181,0,0,0,0,0,0,4.4744,4.4751,4.487,4.4873,4.477,4.4801,4.4805,4.4838,4.4849,4.4846,4.4813,4.4805,4.4851,4.4858,4.4865,4.5007,4.4868,4.4874,4.4877,4.5172,4.5178,4.5183,0,0,0,0,0,0,4.4741,4.4756,4.4869,4.481,4.4823,4.4809,4.4847,4.4842,4.4861,4.4852,4.4848,4.4837,4.4848,4.4857,4.4942,4.5007,4.4876,4.4881,4.5167,4.5174,4.518,4.5294,0,0,0,0,0,0,4.4737,4.4755,4.4803,4.4812,4.4826,4.4947,4.4851,4.4846,4.4871,4.4861,4.4872,4.487,4.4845,4.4935,4.4948,4.5013,4.4886,4.5161,4.517,4.5178,4.5284,4.5304,4.5321,0,0,0,0,0,4.4731,4.4832,4.4806,4.4821,4.4886,4.4951,4.4959,4.493,4.4877,4.4924,4.4918,4.487,4.4999,4.4944,4.4959,4.5026,4.5156,4.5167,4.5178,4.5276,4.53,4.532,0,0,0,0,0,0,4.4829,4.4833,4.4803,4.4911,4.4932,4.4936,4.4994,4.4957,4.4992,4.4981,4.4942,4.4945,4.5037,4.504,4.4979,4.5144,4.5068,4.5082,4.5138,4.5161,4.5179,4.5175,4.489,0,0,0,0,0,4.4864,4.4919,4.4918,4.5013,4.5025,4.5009,4.5036,4.5012,4.5031,4.5038,4.5039,4.5058,4.5102,4.5132,4.5173,4.5285,4.5285,4.5338,4.5357,4.5372,4.5383,4.544,4.5463,4.5218,4.5218,4.5217,0,0,4.4935,4.4944,4.498,4.5033,4.5046,4.5101,4.5016,4.5078,4.5118,4.5047,4.5127,4.5129,4.5147,4.5246,4.529,4.5251,4.5451,4.5385,4.5397,4.54,4.5454,4.5477,4.5498,4.5225,4.5224,4.5223,0,0,4.5092,4.5106,4.5185,4.5201,4.5223,4.5211,4.523,4.524,4.5238,4.5319,4.5266,4.5313,4.5391,4.5405,4.5423,4.5587,4.5542,4.5601,4.5695,4.5752,4.5771,4.5788,4.5843,4.5864,4.5613,4.5613,4.5614,0,4.5177,4.526,4.5231,4.5297,4.532,4.5261,4.5339,4.5355,4.5389,4.5405,4.5363,4.5459,4.5467,4.5568,4.5608,4.5625,4.5644,4.5598,4.5771,4.5787,4.5803,4.5855,4.5877,4.562,4.5619,4.5619,4.5618,0,4.5362,4.542,4.5482,4.5517,4.5548,4.562,4.5599,4.5634,4.5608,4.56,4.5681,4.569,4.573,4.5753,4.5727,4.5849,4.5825,4.5778,4.57,4.5833,4.5882,4.5902,4.563,4.5627,4.5625,4.5624,0,0,4.558,4.5599,4.5621,4.5636,4.5656,4.5699,4.5768,4.5809,4.5838,4.5864,4.5918,4.5987,4.5943,4.5963,4.5939,4.5989,4.6115,4.5935,4.5935,4.5966,4.6247,4.628,4.6304,4.6087,4.6091,4.6094,4.6244,0,4.5733,4.5853,4.5829,4.5945,4.5997,4.5942,4.6001,4.6019,4.6014,4.6055,4.6049,4.6097,4.6037,4.6048,4.6096,4.609,4.617,4.6079,4.6135,4.6137,4.6129,4.633,4.6366,4.6507,4.6263,4.6267,4.6269,0,4.5928,4.5962,4.6084,4.6095,4.6115,4.617,4.6204,4.6247,4.6265,4.6257,4.6281,4.6247,4.6312,4.6237,4.6326,4.6265,4.6287,4.6287,4.6292,4.6294,4.6209,4.6334,4.6552,4.6572,4.6299,4.6297,4.6295,0,4.6071,4.6147,4.623,4.6244,4.626,4.6298,4.6306,4.6321,4.6347,4.6377,4.6393,4.6431,4.6451,4.648,4.6456,4.6404,4.6548,4.6471,4.6541,4.6542,4.6572,4.657,4.6793,4.6591,4.6591,4.659,4.659,0,4.6243,4.6319,4.6294,4.6344,4.6427,4.6398,4.6481,4.6482,4.6495,4.6543,4.6498,4.6544,4.6511,4.6554,4.6536,4.6611,4.6621,4.6615,4.6609,4.6618,4.6618,4.6629,4.6618,4.6596,4.6595,4.6594,4.6593,0,4.6415,4.6402,4.6488,4.6496,4.65,4.656,4.6566,4.6612,4.6604,4.6665,4.6678,4.6665,4.6713,4.6693,4.6743,4.6731,4.6827,4.6809,4.6821,4.6815,4.6886,4.6878,4.7122,4.7151,4.6933,4.6935,4.6937,0,4.6525,4.6582,4.6597,4.6626,4.6638,4.6687,4.6713,4.6687,4.6716,4.6741,4.6784,4.6828,4.6861,4.694,4.6934,4.6972,4.6953,4.7036,4.6958,4.6965,4.6951,4.6947,4.6951,4.705,4.7053,4.7055,4.7056,0,4.6719,4.6709,4.675,4.679,4.6823,4.6852,4.6877,4.6904,4.6878,4.6913,4.6962,4.6989,4.7041,4.7084,4.7118,4.7124,4.7085,4.7082,4.7099,4.7107,4.7111,4.7107,4.686,4.7075,4.7073,4.7072,4.7071,4.707,4.6861,4.6908,4.6926,4.6973,4.699,4.7014,4.7057,4.7055,4.7096,4.7137,4.7119,4.7175,4.7191,4.7233,4.7244,4.7287,4.7254,4.728,4.7286,4.7293,4.7301,4.7107,4.7293,4.7292,4.7292,4.7291,4.7291,0,4.705,4.7059,4.7103,4.7139,4.7176,4.714,4.7165,4.7197,4.7248,4.7267,4.7302,4.7358,4.74,4.7398,4.7437,4.7471,4.7454,4.7482,4.7477,4.7479,4.7329,4.7309,4.7495,4.7495,4.7495,4.7495,4.7495,4.7494,4.7152,4.7231,4.7224,4.7309,4.7317,4.7373,4.7391,4.7412,4.7427,4.7492,4.7528,4.7527,4.7537,4.7576,4.7613,4.7611,4.7626,4.766,4.7651,4.751,4.749,4.747,4.7451,4.7664,4.7664,4.7797,4.7798,4.7799]}]]